Regional Weather Roundup
Issued by NWS

Home | Current Version | Previous Version | Text Only | Print | Product List | Glossary On
Versions: 1 2 3 4 5 6 7 8 9 10 11 12 13 14 15 16 17 18 19 20 21 22 23 24 25 26 27 28 29 30 31 32 33 34 35 36 37 38 39 40 41 42 43 44 45 46 47 48 49 50
000
ASUS43 KLSX 181407
RWRMO

WEATHER SUMMARY FOR MISSOURI
NATIONAL WEATHER SERVICE SPRINGFIELD MO
900 AM CDT WED OCT 18 2017

NOTE: "FAIR" INDICATES FEW OR NO CLOUDS BELOW 12,000 FEET WITH NO
       SIGNIFICANT WEATHER AND/OR OBSTRUCTIONS TO VISIBILITY.
       CURRENT SKY AND/OR WEATHER CONDITIONS ARE NOT AVAILABLE FOR
       CHILLICOTHE AND FARMINGTON.

MOZ001>031-035>038-043-044-053-054-181500-
...NORTHERN AND WESTERN MISSOURI...

CITY           SKY/WX    TMP DP  RH WIND       PRES   REMARKS
KANSAS CTY INT MOSUNNY   56  45  66 S16G23    30.05S
KANSAS C DTWN  SUNNY     57  46  66 S9        30.07R
LEE`S SUMMIT   SUNNY     54  44  69 S17       30.09R
ST JOSEPH      SUNNY     56  47  71 S8        30.03S
CHILLICOTHE      N/A     53  47  79 S5        30.09S
KIRKSVILLE     SUNNY     52  46  80 S8        30.11R

$$
MOZ066>068-077>081-088>096-101>105-181500-
...SOUTHWEST MISSOURI...

CITY           SKY/WX    TMP DP  RH WIND       PRES   REMARKS
SPRINGFIELD    SUNNY     53  42  66 S13       30.16R
JOPLIN         SUNNY     55  44  66 S10       30.15R
BRANSON        SUNNY     50  41  71 SE6       30.19R

$$
MOZ032>034-039>042-045>050-055>058-069>072-181500-
...CENTRAL MISSOURI...

CITY           SKY/WX    TMP DP  RH WIND       PRES   REMARKS
COLUMBIA       SUNNY     52  44  74 S12       30.16R
JEFFERSON CITY SUNNY     50  42  74 E5        30.17R
ROLLA          SUNNY     56  41  57 S14       30.19S
SEDALIA        SUNNY     56  45  66 S13       30.14R
WHITEMAN AFB   SUNNY     53  44  73 SW15      30.08R
WARRENSBURG    SUNNY     54  43  66 S10       30.11R
OSAGE BEACH    SUNNY     52  42  69 S8        30.18R

$$
MOZ051-052-059>065-181500-
...EAST CENTRAL MISSOURI...

CITY           SKY/WX    TMP DP  RH WIND       PRES   REMARKS
ST LOUIS INTL  MOSUNNY   55  43  63 S8        30.21R
SPIRIT OF STL  MOSUNNY   51  46  83 CALM      30.20R
ST CHARLES     SUNNY     51  46  83 E6        30.20S

$$
MOZ072>076-082>087-097>100-106>115-181500-
...SOUTH CENTRAL AND SOUTHEAST MISSOURI...

CITY           SKY/WX    TMP DP  RH WIND       PRES   REMARKS
CAPE GIRARDEAU SUNNY     50  46  86 CALM      30.26R
FARMINGTON     SUNNY     51  45  79 S6        30.24R
POPLAR BLUFF   SUNNY     50  46  86 CALM      30.26R
WEST PLAINS    SUNNY     55  44  66 S3        30.23R

$$



USA.gov is the U.S. government's official web portal to all federal, state and local government web resources and services.